Weather reports worldwide

Advertisment
Frittenden, United Kingdom (99182): temperature & dewpoint: 13.07.2018 12:00:00 - 19.07.2018 12:00:00 (BST)Frittenden, United Kingdom (99182): precipitation: 13.07.2018 12:00:00 - 19.07.2018 12:00:00 (BST)
Date & Time tt [°C] td [°C] rr [mm]
19.07.2018 12:00:00 - - -
19.07.2018 11:00:00 - - -
19.07.2018 10:00:00 - - -
19.07.2018 09:00:00 - - -
19.07.2018 08:00:00 - - -
19.07.2018 07:00:00 - - -
19.07.2018 06:00:00 - - -
19.07.2018 05:00:00 - - -
19.07.2018 04:00:00 - - -
19.07.2018 03:00:00 - - -
19.07.2018 02:00:00 - - -
19.07.2018 01:00:00 - - -
19.07.2018 00:00:00 - - -
18.07.2018 23:00:00 - - -
18.07.2018 22:00:00 - - -
18.07.2018 21:00:00 - - -
18.07.2018 20:00:00 - - -
18.07.2018 19:00:00 - - -
18.07.2018 18:00:00 - - -
18.07.2018 17:00:00 - - -
18.07.2018 16:00:00 - - -
18.07.2018 15:00:00 - - -
18.07.2018 14:00:00 - - -
18.07.2018 13:00:00 - - -
18.07.2018 12:00:00 22,0 9,6 0,0
18.07.2018 11:00:00 21,1 12,0 0,0
18.07.2018 10:00:00 20,4 13,6 0,0
18.07.2018 09:00:00 17,7 14,2 0,0
18.07.2018 08:00:00 13,9 13,4 0,0
18.07.2018 07:00:00 12,2 12,2 0,0
18.07.2018 06:00:00 9,8 9,7 0,0
18.07.2018 05:00:00 10,0 9,8 0,0
18.07.2018 04:00:00 10,8 10,6 0,0
18.07.2018 03:00:00 11,5 11,0 0,0
18.07.2018 02:00:00 11,7 11,0 0,0
18.07.2018 01:00:00 13,2 11,7 0,0
18.07.2018 00:00:00 13,9 12,5 0,0
17.07.2018 23:00:00 14,7 12,4 0,0
17.07.2018 22:00:00 15,7 12,2 0,0
17.07.2018 21:00:00 17,8 11,6 0,0
17.07.2018 20:00:00 19,7 11,0 0,0
17.07.2018 19:00:00 21,7 11,4 0,0
17.07.2018 18:00:00 22,1 11,4 0,0
17.07.2018 17:00:00 22,1 11,5 0,0
17.07.2018 16:00:00 21,1 12,1 0,0
17.07.2018 15:00:00 20,8 13,0 0,0
17.07.2018 14:00:00 22,0 13,2 0,0
17.07.2018 13:00:00 23,0 10,7 0,0
17.07.2018 12:00:00 22,1 10,0 0,0
17.07.2018 11:00:00 21,6 10,5 0,0
17.07.2018 10:00:00 20,4 11,6 0,0
17.07.2018 09:00:00 18,5 10,8 0,0
17.07.2018 08:00:00 16,5 11,4 0,0
17.07.2018 07:00:00 14,9 11,2 0,0
17.07.2018 06:00:00 13,4 10,7 0,0
17.07.2018 05:00:00 13,9 10,2 0,0
17.07.2018 04:00:00 15,4 10,1 0,0
17.07.2018 03:00:00 16,6 11,5 0,0
17.07.2018 02:00:00 17,2 13,7 0,0
17.07.2018 01:00:00 17,5 14,1 0,0
17.07.2018 00:00:00 18,1 14,2 0,0
16.07.2018 23:00:00 18,8 13,9 0,0
16.07.2018 22:00:00 19,9 12,3 0,0
16.07.2018 21:00:00 21,3 10,7 0,0
16.07.2018 20:00:00 23,5 11,8 0,0
16.07.2018 19:00:00 24,7 11,3 0,0
16.07.2018 18:00:00 25,7 10,1 0,0
16.07.2018 17:00:00 28,0 11,8 0,0
16.07.2018 16:00:00 28,4 11,9 0,0
16.07.2018 15:00:00 28,8 12,9 0,0
16.07.2018 14:00:00 28,0 14,8 0,0
16.07.2018 13:00:00 27,4 9,4 0,0
16.07.2018 12:00:00 27,2 10,1 0,0
16.07.2018 11:00:00 26,0 10,9 0,0
16.07.2018 10:00:00 25,4 12,3 0,0
16.07.2018 09:00:00 22,1 13,2 0,0
16.07.2018 08:00:00 18,2 13,8 0,0
16.07.2018 07:00:00 14,7 13,5 0,0
16.07.2018 06:00:00 11,7 11,6 0,0
16.07.2018 05:00:00 11,1 10,9 0,0
16.07.2018 04:00:00 11,2 10,9 0,0
16.07.2018 03:00:00 11,3 10,1 0,0
16.07.2018 02:00:00 12,3 10,8 0,0
16.07.2018 01:00:00 13,3 10,8 0,0
16.07.2018 00:00:00 13,9 10,7 0,0
15.07.2018 23:00:00 15,9 10,6 0,0
15.07.2018 22:00:00 17,3 9,8 0,0
15.07.2018 21:00:00 20,2 9,9 0,0
15.07.2018 20:00:00 24,3 9,8 0,0
15.07.2018 19:00:00 27,2 8,1 0,0
15.07.2018 18:00:00 28,3 7,5 0,0
15.07.2018 17:00:00 28,8 8,0 0,0
15.07.2018 16:00:00 29,2 9,1 0,0
15.07.2018 15:00:00 28,8 8,8 0,0
15.07.2018 14:00:00 29,1 9,8 0,0
15.07.2018 13:00:00 27,5 13,3 0,0
15.07.2018 12:00:00 26,8 13,2 0,0
15.07.2018 11:00:00 25,7 13,2 0,0
15.07.2018 10:00:00 23,9 11,0 0,0
15.07.2018 09:00:00 21,4 12,7 0,0
15.07.2018 08:00:00 16,8 14,4 0,0
15.07.2018 07:00:00 13,4 13,3 0,0
15.07.2018 06:00:00 11,5 11,5 0,0
15.07.2018 05:00:00 10,3 10,1 0,0
15.07.2018 04:00:00 10,4 10,2 0,0
15.07.2018 03:00:00 11,6 11,4 0,0
15.07.2018 02:00:00 12,1 11,6 0,0
15.07.2018 01:00:00 12,8 12,3 0,0
15.07.2018 00:00:00 14,2 12,8 0,0
14.07.2018 23:00:00 15,5 13,1 0,0
14.07.2018 22:00:00 16,9 12,0 0,0
14.07.2018 21:00:00 20,0 12,2 0,0
14.07.2018 20:00:00 23,0 12,0 0,0
14.07.2018 19:00:00 24,8 12,3 0,0
14.07.2018 18:00:00 25,4 12,9 0,0
14.07.2018 17:00:00 26,2 13,7 0,0
14.07.2018 16:00:00 25,1 13,6 0,0
14.07.2018 15:00:00 24,7 12,3 0,0
14.07.2018 14:00:00 24,5 13,0 0,0
14.07.2018 13:00:00 25,0 13,7 0,0
14.07.2018 12:00:00 24,2 15,0 0,0
14.07.2018 11:00:00 22,0 13,8 0,0
14.07.2018 10:00:00 20,7 14,8 0,0
14.07.2018 09:00:00 18,5 13,6 0,0
14.07.2018 08:00:00 16,2 14,2 0,0
14.07.2018 07:00:00 13,0 12,1 0,0
14.07.2018 06:00:00 10,8 10,7 0,0
14.07.2018 05:00:00 10,8 10,6 0,0
14.07.2018 04:00:00 11,0 10,7 0,0
14.07.2018 03:00:00 11,4 10,9 0,0
14.07.2018 02:00:00 11,8 11,2 0,0
14.07.2018 01:00:00 12,5 11,6 0,0
14.07.2018 00:00:00 13,0 11,5 0,0
13.07.2018 23:00:00 14,1 11,9 0,0
13.07.2018 22:00:00 15,0 12,5 0,0
13.07.2018 21:00:00 17,5 12,9 0,0
13.07.2018 20:00:00 20,4 13,8 0,0
13.07.2018 19:00:00 22,5 12,1 0,0
13.07.2018 18:00:00 23,4 11,7 0,0
13.07.2018 17:00:00 23,6 13,0 0,0
13.07.2018 16:00:00 24,1 12,5 0,0
13.07.2018 15:00:00 23,6 13,0 0,0
13.07.2018 14:00:00 23,7 14,4 0,0
13.07.2018 13:00:00 22,1 14,1 0,0
13.07.2018 12:00:00 21,3 14,0 0,0

tt = temperature
td = dewpoint
rr = precipitation

Next stations